GW5195 Weather Reports


Display with metric or nautical units.
time (UTC)temp
F
wind
direction
speed
MPH
gust
MPH
rain 1hr
in
rain 24hr
in
rain mn
in
humidity
%
barometer
mb
20260504223036 61 6 1.0 4.0 0.00 0.02 0.02 39 1008.8
20260504222017 62 352 2.0 4.0 0.01 0.02 0.02 40 1008.7
20260504221017 62 25 2.0 6.0 0.02 0.02 0.02 42 1008.2
20260504220016 61 48 2.0 7.0 0.02 0.02 0.02 45 1007.8
20260504215016 61 49 3.0 9.0 0.02 0.02 0.02 47 1008.1
20260504214037 58 38 2.0 5.0 0.02 0.02 0.02 52 1008.3
20260504213018 57 49 3.0 6.0 0.02 0.02 0.02 52 1009.2
20260504212016 58 356 1.0 5.0 0.01 0.01 0.01 51 1009.8
20260504211016 60 25 3.0 11.0 0.00 0.00 0.00 47 1010.2
20260504210037 61 343 1.0 5.0 0.00 0.00 0.00 46 1009.8
20260504205017 63 342 3.0 11.0 0.00 0.00 0.00 35 1009.3
20260504204016 63 32 4.0 10.0 0.00 0.00 0.00 39 1008.9
20260504203017 65 19 4.0 11.0 0.00 0.00 0.00 31 1008.1
20260504202017 67 26 5.0 15.0 0.00 0.00 0.00 27 1007.7
20260504201037 72 43 4.0 13.0 0.00 0.00 0.00 22 1007.8
20260504200016 72 28 3.0 6.0 0.00 0.00 0.00 22 1007.9
20260504195016 73 318 3.0 6.0 0.00 0.00 0.00 22 1007.7
20260504194018 73 299 3.0 11.0 0.00 0.00 0.00 22 1007.7
20260504193017 76 337 3.0 6.0 0.00 0.00 0.00 21 1007.7
20260504192036 74 285 3.0 8.0 0.00 0.00 0.00 21 1007.6
20260504191016 73 282 4.0 11.0 0.00 0.00 0.00 22 1007.6
20260504190017 73 291 4.0 9.0 0.00 0.00 0.00 21 1007.8
20260504185018 72 285 4.0 11.0 0.00 0.00 0.00 22 1007.8
20260504184016 73 281 5.0 17.0 0.00 0.00 0.00 22 1007.9
20260504183036 72 288 4.0 11.0 0.00 0.00 0.00 22 1008.2
20260504182017 72 252 4.0 21.0 0.00 0.00 0.00 22 1008.3
20260504181017 71 273 3.0 11.0 0.00 0.00 0.00 23 1008.5
20260504180016 70 269 4.0 11.0 0.00 0.00 0.00 23 1008.6
20260504175036 69 253 4.0 15.0 0.00 0.00 0.00 24 1008.9
20260504174017 68 244 3.0 8.0 0.00 0.00 0.00 26 1009.1
20260504173017 67 256 4.0 13.0 0.00 0.00 0.00 26 1009.0
20260504172016 67 258 3.0 6.0 0.00 0.00 0.00 26 1009.1
20260504171016 66 246 4.0 10.0 0.00 0.00 0.00 27 1009.1
20260504151017 63 247 3.0 7.0 0.00 0.00 0.00 27 1009.3
20260504141016 54 238 1.0 4.0 0.00 0.00 0.00 36 1009.5
20260504081017 46 308 0.0 2.0 0.00 0.00 0.00 41 1010.7
20260504050017 59 9 2.0 5.0 0.00 0.00 0.00 29 1011.4
20260504045016 59 15 1.0 5.0 0.00 0.00 0.00 28 1011.2
20260504044036 61 352 2.0 4.0 0.00 0.00 0.00 25 1011.2
20260504043017 61 319 2.0 9.0 0.00 0.00 0.00 25 1011.2
20260504042017 60 300 2.0 7.0 0.00 0.00 0.00 29 1011.0
20260504041016 60 269 1.0 5.0 0.00 0.00 0.00 29 1011.0
20260504040017 60 275 1.0 4.0 0.00 0.00 0.00 29 1011.0
20260504035037 61 265 1.0 3.0 0.00 0.00 0.00 28 1011.1
20260504034016 62 271 1.0 4.0 0.00 0.00 0.00 27 1011.1
20260504033016 62 257 1.0 4.0 0.00 0.00 0.00 26 1011.1
20260504032017 63 255 2.0 4.0 0.00 0.00 0.00 25 1011.1
20260504031018 63 253 1.0 3.0 0.00 0.00 0.00 25 1011.0
20260504030036 63 250 2.0 4.0 0.00 0.00 0.00 25 1011.0
20260504025017 64 264 2.0 3.0 0.00 0.00 0.00 25 1010.9
20260504024017 64 262 1.0 3.0 0.00 0.00 0.00 24 1010.7
20260504023016 64 253 2.0 5.0 0.00 0.00 0.00 25 1010.7
20260504022017 64 266 2.0 3.0 0.00 0.00 0.00 25 1010.7
20260504021017 65 270 1.0 2.0 0.00 0.00 0.00 24 1010.6
20260504020037 66 271 1.0 3.0 0.00 0.00 0.00 24 1010.5
20260504015016 67 290 2.0 4.0 0.00 0.00 0.00 23 1010.5
20260504014016 67 269 1.0 6.0 0.00 0.00 0.00 22 1010.5
20260504013017 68 253 2.0 5.0 0.00 0.00 0.00 22 1010.4
20260504012017 69 252 2.0 5.0 0.00 0.00 0.00 22 1010.5
20260504011036 69 255 2.0 6.0 0.00 0.00 0.00 22 1010.6
20260504010017 69 249 3.0 10.0 0.00 0.00 0.00 21 1010.7
20260504005017 69 249 4.0 12.0 0.00 0.00 0.00 21 1010.8
20260504004016 70 257 2.0 7.0 0.00 0.00 0.00 20 1010.9
20260504003016 70 251 3.0 11.0 0.00 0.00 0.00 20 1010.9
20260504002037 71 261 3.0 9.0 0.00 0.00 0.00 20 1011.0
20260504001017 70 265 2.0 5.0 0.00 0.00 0.00 19 1011.2
20260504000016 70 271 2.0 3.0 0.00 0.00 0.00 18 1011.2
20260503235016 70 52 6.0 19.0 0.00 0.00 0.00 19 1011.6
20260503234017 70 281 4.0 8.0 0.00 0.00 0.00 20 1011.5
20260503233036 70 278 4.0 11.0 0.00 0.00 0.00 18 1011.5
20260503232017 70 270 4.0 12.0 0.00 0.00 0.00 19 1011.4
20260503231017 71 267 4.0 16.0 0.00 0.00 0.00 18 1011.3
20260503230037 71 213 1.0 4.0 0.00 0.00 0.00 17 1011.2
20260503225016 70 242 3.0 11.0 0.00 0.00 0.00 19 1011.3
20260503224017 71 263 4.0 12.0 0.00 0.00 0.00 19 1011.6